Voltar ao catálogo

THORAD AGENA D DEB

AtivoPO
NORAD 4935·DEBRIS·🇺🇸 United States

Lançado Apr 8, 1970 de Vandenberg Space Force Base

Loading…

Próximas Passagens (próximas 24 horas)

TLE

AtualizadoSource: Space-Track

Época: Sep 14, 2026, 08:03 UTC

1 04935U 70025GB  26257.33542817  .00000494  00000-0  45322-3 0  9996
2 04935  99.8658  30.0843 0064291 134.7630 254.7868 13.87403542829402

Acompanhe THORAD AGENA D DEB em tempo real com AllMySat

Download on the App Store